Florence, SC

4:10 AM EDT on June 28, 2017 (GMT -0400)
Florence Regional

Weather History for KFLO - October, 2012

Change the Weather History Date:

Sunday, October 14, 2012

  Actual Average Record
Temperature  
Mean Temperature 67 °F 65 °F  
Max Temperature 82 °F 76 °F 87 °F (1969)
Min Temperature 52 °F 54 °F 32 °F (1988)
Degree Days  
Heating Degree Days 0 3  
Month to date heating degree days 30 28  
Since 1 July heating degree days 30 37  
Cooling Degree Days 2 3  
Month to date cooling degree days 73 55  
Year to date cooling degree days 2283 2011  
Growing Degree Days 16 (Base 50)    
Moisture  
Dew Point 55 °F    
Average Humidity 64    
Maximum Humidity 83    
Minimum Humidity 45    
Precipitation  
Precipitation 0.00 in 0.11 in 1.53 in (1959)
Month to date precipitation 0.81 1.55  
Year to date precipitation 34.92 35.70  
Sea Level Pressure  
Sea Level Pressure 30.19 in    
Wind  
Wind Speed 4 mph (ENE)    
Max Wind Speed 9 mph    
Max Gust Speed 15 mph    
Visibility 10 miles    
Events      
T = Trace of Precipitation, MM = Missing Value Source: NWS Daily Summary

Daily Weather History Graph

Daily Weather History Graph

Search for Another Location

Airport or City:

Trip Planner

Search our weather history database for the weather conditions in past years. The results will help you decide how hot, cold, wet, or windy it might be!

Date:

Astronomy

Oct. 14, 2012 Rise Set
Actual Time 7:23 AM EDT 6:45 PM EDT
Civil Twilight 6:58 AM EDT 7:10 PM EDT
Nautical Twilight 6:29 AM EDT 7:39 PM EDT
Astronomical Twilight 6:00 AM EDT 8:08 PM EDT
Moon 6:21 AM EDT (10/14) 6:04 PM EDT (10/14)
Length of Visible Light 12h 12m
Length of Day
11h 21m
Waning Crescent, 1% of the Moon is Illuminated
Oct 14
Waning Crescent
Oct 15
New
Oct 21
First Quarter
Oct 29
Full
Nov 6
Last Quarter

Hourly Weather History & Observations

Time (EDT) Temp. Heat Index Dew Point Humidity Pressure Visibility Wind Dir Wind Speed Gust Speed Precip Events Conditions
1:53 AM 53.1 °F - 48.9 °F 86% 30.30 in 10.0 mi Calm Calm - N/A   Clear
2:53 AM 53.1 °F - 48.9 °F 86% 30.27 in 10.0 mi NE 3.5 mph - N/A   Clear
3:53 AM 54.0 °F - 48.9 °F 83% 30.26 in 10.0 mi NE 3.5 mph - N/A   Clear
4:53 AM 54.0 °F - 48.9 °F 83% 30.25 in 10.0 mi North 4.6 mph - N/A   Clear
5:53 AM 53.1 °F - 48.0 °F 83% 30.25 in 10.0 mi North 5.8 mph - N/A   Clear
6:53 AM 53.1 °F - 48.0 °F 83% 30.25 in 10.0 mi NNE 5.8 mph - N/A   Clear
7:53 AM 53.1 °F - 48.0 °F 83% 30.25 in 10.0 mi NNE 4.6 mph - N/A   Clear
8:53 AM 57.0 °F - 50.0 °F 77% 30.27 in 10.0 mi ENE 6.9 mph - N/A   Partly Cloudy
9:18 AM 59.0 °F - 51.8 °F 77% 30.28 in 10.0 mi NE 5.8 mph - N/A   Partly Cloudy
9:53 AM 62.1 °F - 54.0 °F 75% 30.27 in 10.0 mi NE 4.6 mph - N/A   Clear
10:53 AM 68.0 °F - 57.9 °F 70% 30.25 in 10.0 mi Variable 3.5 mph - N/A   Clear
11:53 AM 73.9 °F - 60.1 °F 62% 30.24 in 10.0 mi Calm Calm - N/A   Clear
12:53 PM 78.1 °F - 60.1 °F 54% 30.21 in 10.0 mi Variable 4.6 mph - N/A   Clear
1:53 PM 79.0 °F - 55.9 °F 45% 30.18 in 10.0 mi SSE 8.1 mph - N/A   Partly Cloudy
2:53 PM 80.1 °F 80.4 °F 57.0 °F 45% 30.16 in 10.0 mi Variable 4.6 mph - N/A   Clear
3:53 PM 80.1 °F 80.6 °F 57.9 °F 47% 30.13 in 10.0 mi Calm Calm - N/A   Mostly Cloudy
4:53 PM 79.0 °F - 59.0 °F 50% 30.12 in 10.0 mi SE 4.6 mph - N/A   Overcast
5:53 PM 78.1 °F - 61.0 °F 56% 30.11 in 10.0 mi Calm Calm - N/A   Overcast
6:53 PM 73.0 °F - 63.0 °F 71% 30.09 in 10.0 mi Calm Calm - N/A   Clear
7:53 PM 70.0 °F - 61.0 °F 73% 30.09 in 10.0 mi SSE 4.6 mph - N/A   Clear
8:53 PM 68.0 °F - 60.1 °F 76% 30.09 in 10.0 mi SSE 4.6 mph - N/A   Clear
9:53 PM 66.9 °F - 60.1 °F 79% 30.09 in 10.0 mi SW 4.6 mph - N/A   Clear
10:53 PM 66.0 °F - 60.1 °F 81% 30.07 in 10.0 mi SSE 9.2 mph - N/A   Mostly Cloudy
11:53 PM 66.0 °F - 61.0 °F 84% 30.05 in 10.0 mi South 5.8 mph - N/A   Clear